When you browse on this site, cookies collect data to enhance your experience and personalize the content and advertising you see.
Visit our Privacy Policy to learn more. By continuing to use the site, you agree to this use of cookies and data.
  • In Hungary
  • List of Countries
  • For 7 days
  • Water Temperature
  • Satellite Maps
  • Weather Map
  • News
  • Weather Widgets
  • user-avatar
    Login

    Hourly Weather Monreale

    Today, 24 June, Monday

    Time Temperature Precipitation Wind Pressure Humidity
    00:00 +26°C° 0 mm 1 mps 734 mmHg 56%
    01:00 +26°C° 0 mm 1 mps 734 mmHg 49%
    02:00 +25°C° 0 mm 1 mps 734 mmHg 56%
    03:00 +24°C° 0 mm 1 mps 734 mmHg 63%
    04:00 +23°C° 0 mm 1 mps 734 mmHg 70%
    05:00 +25°C° 0 mm 1 mps 734 mmHg 65%
    06:00 +26°C° 0 mm 1 mps 734 mmHg 59%
    07:00 +28°C° 0 mm 1 mps 734 mmHg 52%
    08:00 +29°C° 0 mm 2 mps 734 mmHg 48%
    09:00 +31°C° 0 mm 2 mps 734 mmHg 43%
    10:00 +34°C° 0 mm 3 mps 734 mmHg 39%
    11:00 +34°C° 0 mm 3 mps 734 mmHg 39%
    12:00 +34°C° 0 mm 3 mps 734 mmHg 39%
    13:00 +35°C° 0 mm 4 mps 734 mmHg 38%
    14:00 +34°C° 0 mm 4 mps 734 mmHg 37%
    15:00 +34°C° 0 mm 3 mps 734 mmHg 37%
    16:00 +34°C° 0 mm 3 mps 734 mmHg 36%
    17:00 +31°C° 0 mm 3 mps 734 mmHg 40%
    18:00 +29°C° 0 mm 3 mps 734 mmHg 44%
    19:00 +27°C° 0 mm 3 mps 734 mmHg 48%
    20:00 +26°C° 0 mm 2 mps 734 mmHg 47%
    21:00 +25°C° 0 mm 2 mps 734 mmHg 46%
    22:00 +24°C° 0 mm 2 mps 734 mmHg 46%
    23:00 +24°C° 0 mm 2 mps 734 mmHg 46%

    Tomorrow, 25 June, Tuesday

    Time Temperature Precipitation Wind Pressure Humidity
    00:00 +24°C° 0 mm 2 mps 734 mmHg 47%
    01:00 +23°C° 0 mm 2 mps 734 mmHg 48%
    02:00 +23°C° 0 mm 2 mps 734 mmHg 50%
    03:00 +23°C° 0 mm 2 mps 734 mmHg 51%
    04:00 +23°C° 0 mm 2 mps 734 mmHg 53%
    05:00 +25°C° 0 mm 2 mps 734 mmHg 49%
    06:00 +26°C° 0 mm 1 mps 734 mmHg 45%
    07:00 +28°C° 0 mm 1 mps 735 mmHg 42%
    08:00 +29°C° 0 mm 2 mps 735 mmHg 40%
    09:00 +31°C° 0 mm 2 mps 736 mmHg 38%
    10:00 +33°C° 0 mm 3 mps 736 mmHg 36%
    11:00 +33°C° 0 mm 3 mps 736 mmHg 37%
    12:00 +34°C° 0 mm 3 mps 736 mmHg 37%
    13:00 +34°C° 0 mm 4 mps 736 mmHg 38%
    14:00 +33°C° 0 mm 4 mps 736 mmHg 40%
    15:00 +33°C° 0 mm 3 mps 736 mmHg 42%
    16:00 +31°C° 0 mm 3 mps 736 mmHg 44%
    17:00 +30°C° 0 mm 3 mps 736 mmHg 46%
    18:00 +29°C° 0 mm 2 mps 736 mmHg 49%
    19:00 +27°C° 0 mm 2 mps 736 mmHg 52%
    20:00 +26°C° 0 mm 2 mps 736 mmHg 56%
    21:00 +25°C° 0 mm 2 mps 736 mmHg 60%
    22:00 +24°C° 0 mm 2 mps 736 mmHg 64%
    23:00 +24°C° 0 mm 2 mps 736 mmHg 65%

    Day after tomorrow, 26 June, Wednesday

    Time Temperature Precipitation Wind Pressure Humidity
    00:00 +24°C° 0 mm 2 mps 736 mmHg 66%
    01:00 +23°C° 0 mm 2 mps 736 mmHg 66%
    02:00 +23°C° 0 mm 2 mps 736 mmHg 65%
    03:00 +23°C° 0 mm 1 mps 736 mmHg 64%
    04:00 +23°C° 0 mm 1 mps 736 mmHg 63%
    05:00 +25°C° 0 mm 1 mps 736 mmHg 59%
    06:00 +26°C° 0 mm 1 mps 736 mmHg 56%
    07:00 +28°C° 0 mm 1 mps 737 mmHg 52%
    08:00 +29°C° 0 mm 1 mps 737 mmHg 49%
    09:00 +30°C° 0 mm 2 mps 737 mmHg 46%
    10:00 +31°C° 0 mm 2 mps 737 mmHg 43%
    11:00 +31°C° 0 mm 3 mps 737 mmHg 44%
    12:00 +33°C° 0 mm 3 mps 737 mmHg 45%
    13:00 +33°C° 0 mm 4 mps 737 mmHg 45%
    14:00 +31°C° 0 mm 3 mps 737 mmHg 47%
    15:00 +31°C° 0 mm 3 mps 736 mmHg 48%
    16:00 +30°C° 0 mm 3 mps 736 mmHg 50%
    17:00 +29°C° 0 mm 2 mps 736 mmHg 53%
    18:00 +28°C° 0 mm 2 mps 736 mmHg 57%
    19:00 +27°C° 0 mm 2 mps 736 mmHg 60%
    20:00 +27°C° 0 mm 1 mps 736 mmHg 63%
    21:00 +26°C° 0 mm 1 mps 736 mmHg 66%
    22:00 +25°C° 0 mm 1 mps 736 mmHg 68%
    23:00 +24°C° 0 mm 1 mps 736 mmHg 68%

    27 June, Thursday

    Time Temperature Precipitation Wind Pressure Humidity
    00:00 +24°C° 0 mm 1 mps 736 mmHg 68%
    01:00 +24°C° 0 mm 1 mps 736 mmHg 68%
    02:00 +24°C° 0 mm 1 mps 735 mmHg 67%
    03:00 +24°C° 0 mm 1 mps 735 mmHg 65%
    04:00 +24°C° 0 mm 1 mps 735 mmHg 64%
    05:00 +25°C° 0 mm 1 mps 735 mmHg 60%
    06:00 +27°C° 0 mm 1 mps 735 mmHg 55%
    07:00 +28°C° 0 mm 1 mps 735 mmHg 51%
    08:00 +29°C° 0 mm 2 mps 735 mmHg 48%
    09:00 +31°C° 0 mm 2 mps 735 mmHg 45%
    10:00 +32°C° 0 mm 2 mps 736 mmHg 42%
    11:00 +33°C° 0 mm 3 mps 735 mmHg 40%
    12:00 +34°C° 0 mm 3 mps 735 mmHg 39%
    13:00 +34°C° 0 mm 3 mps 735 mmHg 38%
    14:00 +34°C° 0 mm 3 mps 735 mmHg 40%
    15:00 +33°C° 0 mm 3 mps 734 mmHg 42%
    16:00 +31°C° 0 mm 3 mps 734 mmHg 44%
    17:00 +30°C° 0 mm 3 mps 734 mmHg 48%
    18:00 +29°C° 0 mm 2 mps 734 mmHg 53%
    19:00 +28°C° 0 mm 1 mps 734 mmHg 57%
    20:00 +27°C° 0 mm 1 mps 734 mmHg 60%
    21:00 +26°C° 0 mm 1 mps 734 mmHg 63%
    22:00 +25°C° 0 mm 1 mps 734 mmHg 66%
    23:00 +25°C° 0 mm 1 mps 734 mmHg 67%

    28 June, Friday

    Time Temperature Precipitation Wind Pressure Humidity
    00:00 +24°C° 0 mm 1 mps 733 mmHg 68%
    01:00 +24°C° 0 mm 1 mps 733 mmHg 69%
    02:00 +24°C° 0 mm 1 mps 733 mmHg 68%
    03:00 +24°C° 0 mm 1 mps 733 mmHg 68%
    04:00 +24°C° 0 mm 1 mps 733 mmHg 67%
    05:00 +26°C° 0 mm 1 mps 732 mmHg 63%
    06:00 +27°C° 0 mm 1 mps 732 mmHg 58%
    07:00 +28°C° 0 mm 1 mps 732 mmHg 54%
    08:00 +30°C° 0 mm 1 mps 733 mmHg 48%
    09:00 +31°C° 0 mm 2 mps 733 mmHg 42%
    10:00 +34°C° 0 mm 3 mps 733 mmHg 37%
    11:00 +34°C° 0 mm 3 mps 733 mmHg 36%
    12:00 +34°C° 0 mm 3 mps 733 mmHg 35%
    13:00 +34°C° 0 mm 3 mps 732 mmHg 34%
    14:00 +34°C° 0 mm 3 mps 732 mmHg 35%
    15:00 +33°C° 0 mm 3 mps 732 mmHg 37%
    16:00 +33°C° 0 mm 3 mps 732 mmHg 39%
    17:00 +30°C° 0 mm 3 mps 732 mmHg 46%
    18:00 +29°C° 0 mm 2 mps 731 mmHg 53%
    19:00 +27°C° 0 mm 1 mps 731 mmHg 59%
    20:00 +26°C° 0 mm 1 mps 731 mmHg 61%
    21:00 +26°C° 0 mm 1 mps 732 mmHg 64%
    22:00 +25°C° 0 mm 1 mps 732 mmHg 66%
    23:00 +25°C° 0 mm 1 mps 732 mmHg 61%

    29 June, Saturday

    Time Temperature Precipitation Wind Pressure Humidity
    00:00 +25°C° 0 mm 1 mps 731 mmHg 57%
    01:00 +25°C° 0 mm 1 mps 731 mmHg 53%
    02:00 +25°C° 0 mm 1 mps 731 mmHg 54%
    03:00 +25°C° 0 mm 1 mps 731 mmHg 54%
    04:00 +25°C° 0 mm 1 mps 730 mmHg 55%
    05:00 +26°C° 0 mm 1 mps 731 mmHg 51%
    06:00 +28°C° 0 mm 1 mps 731 mmHg 48%
    07:00 +29°C° 0 mm 1 mps 731 mmHg 44%
    08:00 +31°C° 0 mm 1 mps 731 mmHg 42%
    09:00 +32°C° 0 mm 2 mps 732 mmHg 39%
    10:00 +34°C° 0 mm 2 mps 732 mmHg 37%
    11:00 +34°C° 0 mm 3 mps 732 mmHg 37%
    12:00 +34°C° 0 mm 3 mps 732 mmHg 38%
    13:00 +34°C° 0 mm 3 mps 732 mmHg 38%
    14:00 +34°C° 0 mm 3 mps 731 mmHg 38%
    15:00 +34°C° 0 mm 3 mps 731 mmHg 37%
    16:00 +33°C° 0 mm 3 mps 731 mmHg 37%
    17:00 +31°C° 0 mm 3 mps 731 mmHg 41%
    18:00 +29°C° 0 mm 2 mps 731 mmHg 45%
    19:00 +28°C° 0 mm 2 mps 731 mmHg 49%
    20:00 +27°C° 0 mm 2 mps 731 mmHg 55%
    21:00 +25°C° 0 mm 2 mps 731 mmHg 62%
    22:00 +24°C° 0 mm 2 mps 731 mmHg 69%
    23:00 +24°C° 0 mm 1 mps 731 mmHg 64%
    Show more